Regional Weather Roundup
Issued by NWS Cleveland, OH

Home | Current Version | Previous Version | Graphics & Text | Print | Product List | Glossary On
Versions: 1 2 3 4 5 6 7 8 9 10 11 12 13 14 15 16 17 18 19 20 21 22 23 24 25 26 27 28 29 30 31 32 33 34 35 36 37 38 39 40 41 42 43 44 45 46 47 48 49 50
000
ASUS41 KCLE 210012
RWRCLE
OHIO REGIONAL WEATHER ROUNDUP
NATIONAL WEATHER SERVICE WILMINGTON, OH
700 PM EST FRI JAN 20 2017

NOTE: "FAIR" INDICATES FEW OR NO CLOUDS BELOW 12,000 FEET WITH NO
SIGNIFICANT WEATHER AND/OR OBSTRUCTIONS TO VISIBILITY.

OHZ001>008-015>018-024>027-034-035-043-044-210100-
   NORTHWEST OHIO

CITY           SKY/WX    TMP DP  RH WIND       PRES   REMARKS
DEFIANCE       CLOUDY    46  45  96 CALM      29.73R FOG
FINDLAY        CLOUDY    50  46  86 SW5       29.74R
TOLEDO EXPRESS CLOUDY    45  45 100 CALM      29.73R FOG
TOLEDO EXEC    CLOUDY    46  45  96 S3        29.74S FOG
LIMA           CLOUDY    50  50 100 CALM      29.75R
$$

OHZ009>014-019>023-028>033-038-089-210100-
   NORTHEAST OHIO

CITY           SKY/WX    TMP DP  RH WIND       PRES   REMARKS
CLE-HOPKINS    CLOUDY    53  48  83 SW5       29.77R
CLE-LAKEFRONT  FOG       44  43  96 CALM      29.75R VSB 1/4
CUY CO. ARPT   FOG       48  48 100 SW5       29.75R VSB 3/4
LORAIN-ELYRIA  CLOUDY    49  46  90 W5        29.75R
ASHTABULA      CLOUDY    49  49 100 W5        29.75R
AKRON-CANTON   MOCLDY    51  49  92 SW3       29.75R
WOOSTER        CLOUDY    52  47  83 SW7       29.76R
MANSFIELD      CLOUDY    50  49  96 SW5       29.75R
YOUNGSTOWN     LGT RAIN  51  49  92 SW6       29.76R
$$

OHZ042-051>053-060>062-070>072-077>081-210100-
  SOUTHWEST OHIO

CITY           SKY/WX    TMP DP  RH WIND       PRES   REMARKS
CINC-COVINGTON MOCLDY    55  49  80 S6        29.75R
CINC-LUNKEN    CLOUDY    56  50  80 S3        29.77R
HAMILTON       CLOUDY    58  50  75 S5        29.76R
DAYTON         MOCLDY    51  46  83 CALM      29.76R
WRIGHT-PAT AFB MOCLDY    50  49  99 CALM      29.76R
DAYTON GENERAL NOT AVBL
WILMINGTON     FAIR      51  47  86 SW7       29.76R
$$

OHZ036-037-039>041-045>050-054>059-063>069-073>076-082>088-210100-
  CENTRAL AND SOUTHEAST OHIO

CITY           SKY/WX    TMP DP  RH WIND       PRES   REMARKS
COLUMBUS       MOCLDY    56  48  74 S3        29.76R
OSU AIRPORT    FAIR      51  50  96 CALM      29.76R
BOLTON FIELD   CLOUDY    52  48  87 SW6       29.78R
RICKENBACK AFB   N/A     50  49  95 S6        29.76R
NEWARK         FAIR      50  47  89 CALM      29.76R
MARION         CLOUDY    52  47  83 SW7       29.76R
LANCASTER      MOCLDY    48  46  93 CALM      29.77R
ZANESVILLE     FAIR      55  48  77 CALM      29.77R
NEW PHILLY     CLOUDY    56  50  80 CALM      29.77R
$$



USA.gov is the U.S. government's official web portal to all federal, state and local government web resources and services.